Precipitable_Water
1.08 1.18 1.28 1.34 1.40 1.45 1.49 1.71 2.00 1.88 1.80 1.74 1.63 1.60 1.68 1.51 1.32 1.23 1.24 1.05 1.07 1.07 1.05 1.06 1.07 1.07 1.04 1.04 1.05 1.01 0.94 0.84
1.00 1.07 1.15 1.24 1.33 1.42 1.46 1.61 1.73 1.68 1.68 1.73 1.65 1.67 1.71 1.55 1.33 1.24 1.16 1.00 1.05 1.08 1.08 1.06 1.05 1.02 1.03 1.03 0.98 0.94 0.85 0.81
0.98 1.06 1.11 1.16 1.25 1.36 1.47 1.56 1.63 1.60 1.59 1.57 1.54 1.70 1.68 1.57 1.44 1.30 1.14 0.96 1.06 1.01 1.04 1.04 0.98 1.01 1.01 0.99 0.95 0.90 0.79 0.78
1.03 1.12 1.20 1.25 1.26 1.31 1.35 1.45 1.54 1.55 1.50 1.51 1.46 1.50 1.75 1.55 1.46 1.29 1.08 1.02 1.06 1.05 1.00 1.00 0.99 1.02 1.06 0.96 0.94 0.87 0.78 0.76
1.06 1.25 1.32 1.34 1.30 1.29 1.31 1.35 1.40 1.44 1.44 1.43 1.38 1.44 1.75 1.53 1.43 1.28 1.00 1.02 0.96 0.93 0.98 1.01 1.01 0.99 1.00 0.95 0.93 0.89 0.81 0.77
1.09 1.26 1.29 1.31 1.32 1.29 1.28 1.27 1.32 1.35 1.40 1.38 1.39 1.51 1.64 1.44 1.34 1.17 1.09 0.90 0.84 0.88 0.93 0.97 0.97 1.00 1.01 0.95 0.93 0.92 0.87 0.82
0.95 1.18 1.26 1.27 1.24 1.28 1.29 1.29 1.34 1.42 1.45 1.48 1.49 1.53 1.51 1.42 1.28 1.12 1.08 0.92 0.82 0.84 0.93 0.92 0.95 1.02 1.08 0.97 0.95 0.93 0.91 0.89
0.88 1.08 1.20 1.21 1.21 1.23 1.25 1.29 1.40 1.46 1.47 1.49 1.69 1.61 1.49 1.34 1.14 1.03 0.90 0.81 0.77 0.84 0.90 0.91 0.96 1.07 1.09 1.00 0.98 0.96 0.96 0.92
0.82 0.96 1.11 1.14 1.17 1.19 1.21 1.30 1.44 1.49 1.44 1.52 1.69 1.60 1.48 1.19 1.08 0.87 0.84 0.80 0.81 0.86 0.92 0.94 0.97 1.03 1.08 1.03 1.01 1.00 0.98 0.93
0.82 0.91 0.99 1.05 1.11 1.18 1.23 1.26 1.41 1.51 1.63 1.60 1.71 1.59 1.40 1.23 1.00 0.93 0.86 0.78 0.79 0.76 0.85 0.91 0.93 0.99 1.02 1.01 0.99 1.01 0.99 0.95
0.75 0.85 0.88 0.97 1.06 1.12 1.16 1.22 1.32 1.54 1.63 1.62 1.66 1.53 1.38 1.17 1.00 0.95 0.88 0.81 0.81 0.78 0.90 0.89 0.86 0.93 0.97 1.00 1.00 1.00 1.02 0.99
0.73 0.80 0.87 0.91 0.98 1.06 1.14 1.17 1.26 1.47 1.58 1.59 1.59 1.55 1.43 1.24 1.08 1.01 0.94 0.87 0.89 0.86 0.88 0.89 0.83 0.84 0.93 0.96 1.04 1.07 1.07 1.01
0.69 0.72 0.82 0.86 0.87 0.93 1.04 1.09 1.18 1.27 1.40 1.48 1.52 1.52 1.50 1.36 1.17 1.12 1.04 0.95 1.01 1.02 0.98 0.92 0.89 0.90 0.91 0.96 1.04 1.10 1.09 1.05
0.70 0.70 0.77 0.81 0.90 1.02 1.12 1.18 1.22 1.26 1.33 1.40 1.47 1.50 1.50 1.39 1.26 1.19 1.15 1.03 1.10 1.11 1.06 0.96 0.99 0.97 0.84 0.88 0.84 0.96 1.07 1.08
0.72 0.68 0.74 0.81 0.93 1.06 1.13 1.20 1.23 1.18 1.22 1.30 1.43 1.50 1.50 1.43 1.33 1.29 1.26 1.18 1.14 1.16 1.12 1.03 0.96 0.97 0.95 0.87 0.79 0.78 0.89 1.01
0.78 0.71 0.74 0.82 0.92 1.00 1.03 1.02 1.01 1.11 1.21 1.28 1.40 1.45 1.42 1.43 1.40 1.33 1.29 1.29 1.19 1.18 1.19 1.10 1.05 0.92 0.96 1.03 0.97 0.92 0.80 0.80
0.79 0.71 0.71 0.78 0.87 0.95 1.01 1.02 1.06 1.12 1.16 1.20 1.26 1.37 1.41 1.39 1.40 1.38 1.31 1.30 1.29 1.24 1.22 1.17 1.13 1.00 0.94 0.94 0.95 0.96 0.98 0.87
0.80 0.68 0.68 0.75 0.82 0.90 0.93 0.99 1.01 1.04 1.09 1.12 1.18 1.26 1.35 1.37 1.36 1.36 1.34 1.32 1.31 1.29 1.26 1.20 1.15 1.05 0.99 0.93 0.92 0.89 0.92 0.91
0.77 0.68 0.65 0.71 0.76 0.85 0.89 0.92 0.96 0.97 0.99 1.06 1.14 1.22 1.27 1.27 1.29 1.30 1.31 1.31 1.28 1.26 1.24 1.20 1.12 1.05 0.99 0.95 0.96 0.95 0.97 0.92
0.79 0.67 0.65 0.69 0.71 0.81 0.90 0.92 0.89 0.92 0.96 0.99 1.03 1.11 1.19 1.26 1.26 1.29 1.31 1.29 1.22 1.22 1.20 1.17 1.11 1.06 1.00 0.99 0.97 1.02 1.07 1.09
Wind_Speed
15 16 18 19 22 23 27 30 34 29 24 24 25 22 27 25 25 26 26 25 26 25 24 23 21 18 19 16 14 13 12 13
16 17 19 20 20 22 24 26 24 26 21 24 24 22 29 26 24 25 26 26 27 26 25 23 20 19 18 16 14 13 13 13
16 17 18 20 20 21 21 23 26 26 27 25 25 28 31 27 24 25 25 27 28 27 26 24 20 21 18 16 14 13 14 14
16 16 17 18 20 20 20 20 22 24 25 25 27 31 34 29 25 24 26 28 29 27 27 25 22 21 19 17 14 14 15 14
15 14 14 16 18 19 19 19 21 24 26 26 26 31 35 29 26 25 25 29 30 29 28 24 22 20 18 17 16 15 15 14
12 12 11 10 12 15 16 17 19 22 26 30 29 36 35 30 28 26 24 30 29 29 29 26 23 19 19 19 17 16 15 14
11 9 7 7 9 11 13 14 17 20 23 28 31 43 37 31 28 28 28 29 30 29 28 27 23 20 19 19 18 17 15 14
9 7 6 6 8 10 12 13 16 19 22 27 30 43 38 31 28 28 28 29 30 30 29 28 25 20 19 19 18 17 16 15
7 6 6 6 7 8 10 10 11 16 22 25 38 39 36 31 28 27 28 28 30 30 30 28 25 21 20 19 19 18 17 16
8 6 6 6 7 8 7 8 7 11 19 31 39 39 37 31 28 28 28 27 28 29 29 28 26 22 21 20 19 18 18 17
8 8 7 7 7 7 8 7 7 11 18 29 39 36 35 31 29 28 28 28 27 28 28 27 26 24 22 22 21 19 18 18
9 9 8 7 7 7 8 9 8 13 21 27 32 34 34 31 29 29 29 28 28 28 28 27 26 25 23 22 22 21 20 20
9 9 9 9 8 9 10 12 14 17 20 23 27 31 34 32 30 30 31 30 29 29 28 28 27 26 24 22 23 23 23 22
9 9 9 9 9 9 10 13 16 19 21 23 27 30 33 32 32 32 32 32 31 30 29 28 27 27 25 25 22 23 24 25
9 9 8 8 8 8 8 12 15 18 19 22 26 29 30 30 31 32 33 33 33 31 31 31 27 28 27 25 23 23 23 25
10 9 7 6 6 6 8 10 13 15 17 20 25 28 28 30 30 30 31 33 32 33 32 31 30 29 27 28 25 22 22 22
11 9 7 5 5 6 8 10 11 11 15 18 23 28 30 29 30 30 30 32 33 32 32 31 31 29 29 28 27 25 24 23
12 10 8 6 6 6 9 10 10 11 14 16 18 22 28 28 28 30 28 30 31 32 33 32 30 29 29 29 29 27 24 24
14 12 9 8 7 7 9 10 11 11 12 13 15 21 25 26 26 28 30 30 29 28 31 32 31 30 30 29 28 27 25 26
15 13 11 10 9 9 9 10 11 12 13 13 15 16 21 24 25 25 26 27 28 29 28 30 31 31 32 32 32 31 29 28
Wind_Direction
274 263 258 253 250 246 242 240 226 214 205 209 211 211 200 192 197 199 198 197 193 191 189 188 189 190 182 181 182 181 182 178
278 268 261 255 253 247 243 241 233 232 216 211 209 207 204 200 196 198 198 197 192 192 191 191 189 187 181 182 183 184 181 179
284 273 266 257 252 246 242 237 232 233 228 223 220 214 203 197 199 199 197 195 193 193 192 191 190 185 186 184 184 186 182 179
289 282 270 258 248 241 238 235 232 226 224 224 222 214 201 197 198 197 196 194 193 193 192 192 189 187 185 189 190 186 182 182
290 284 275 260 245 236 232 235 233 229 229 227 222 211 197 193 193 193 194 193 193 194 193 195 189 188 191 195 191 186 185 186
293 287 273 254 231 225 227 235 237 234 230 221 219 200 191 196 196 194 196 194 193 194 194 195 194 192 196 197 193 191 191 191
295 283 256 238 221 224 231 239 240 234 227 219 214 198 196 195 198 197 196 194 193 194 195 197 196 195 198 194 196 197 196 197
292 274 244 229 229 230 240 249 251 239 222 211 206 184 187 193 191 193 194 193 195 196 197 198 199 202 201 200 201 202 202 203
278 262 241 235 236 240 249 252 255 226 206 198 186 183 187 188 190 192 193 195 197 198 199 200 203 207 205 206 206 205 207 208
261 253 244 239 239 244 242 244 237 210 198 192 186 188 189 190 193 195 193 193 193 197 201 202 207 210 209 212 210 209 211 213
247 241 238 241 240 246 237 236 229 196 185 178 182 188 190 193 197 196 196 197 197 198 201 206 210 213 212 213 213 216 217 216
239 240 241 241 247 243 239 229 206 180 178 182 189 194 195 197 201 202 201 201 201 203 205 210 212 215 214 215 219 224 221 222
238 239 240 244 249 248 242 227 209 197 195 198 201 201 202 206 207 207 206 207 206 208 211 211 214 217 216 218 225 228 227 228
235 235 237 249 256 256 240 222 214 211 211 212 210 205 207 209 210 210 212 212 212 213 216 215 215 217 221 223 227 231 234 235
229 229 238 255 258 251 230 215 209 208 214 216 208 205 207 210 211 214 215 216 216 216 217 215 219 221 224 227 231 236 236 239
224 226 235 253 246 235 208 194 198 211 213 207 206 207 208 209 214 215 215 215 216 216 218 220 223 223 228 230 232 233 238 243
221 223 231 236 230 222 204 200 202 202 202 206 212 213 213 214 215 215 215 217 218 219 221 222 223 227 228 229 232 238 245 241
220 220 225 226 217 208 201 199 196 197 203 208 208 208 208 212 213 213 215 216 218 223 223 223 226 227 229 230 233 236 243 238
218 218 222 222 217 208 201 199 201 202 201 203 206 205 206 210 210 214 219 219 218 218 221 225 228 231 232 232 233 237 241 241
216 218 220 221 219 212 206 204 205 207 207 204 201 201 206 212 214 214 214 216 218 222 225 227 231 233 234 235 237 239 245 246